| time (UTC) | temp C | wind direction | speed KPH | gust KPH | rain 1hr cm | rain 24hr cm | rain mn cm | humidity % | barometer mb |
| 20260503174504 | 14 | 247 | 8.0 | 38.6 | 0.00 | 0.00 | 0.00 | 38 | 1017.8 |
| 20260503174006 | 14 | 247 | 11.3 | 38.6 | 0.00 | 0.00 | 0.00 | 38 | 1018.2 |
| 20260503173502 | 14 | 270 | 12.9 | 38.6 | 0.00 | 0.00 | 0.00 | 38 | 1018.2 |
| 20260503173005 | 14 | 270 | 6.4 | 25.7 | 0.00 | 0.00 | 0.00 | 39 | 1018.2 |
| 20260503172506 | 14 | 247 | 12.9 | 25.7 | 0.00 | 0.00 | 0.00 | 39 | 1018.2 |
| 20260503172002 | 14 | 247 | 12.9 | 25.7 | 0.00 | 0.00 | 0.00 | 39 | 1018.5 |
| 20260503171504 | 14 | 225 | 11.3 | 30.6 | 0.00 | 0.00 | 0.00 | 39 | 1018.2 |
| 20260503171006 | 14 | 157 | 4.8 | 30.6 | 0.00 | 0.00 | 0.00 | 39 | 1018.5 |
| 20260503170502 | 13 | 225 | 9.7 | 30.6 | 0.00 | 0.00 | 0.00 | 40 | 1018.5 |
| 20260503151006 | 12 | 247 | 8.0 | 24.1 | 0.00 | 0.00 | 0.00 | 48 | 1019.9 |
| 20260503150502 | 11 | 270 | 8.0 | 24.1 | 0.00 | 0.00 | 0.00 | 47 | 1019.9 |
| 20260503131005 | 7 | 292 | 8.0 | 25.7 | 0.00 | 0.00 | 0.00 | 62 | 1019.9 |
| 20260503130501 | 7 | 247 | 16.1 | 25.7 | 0.00 | 0.00 | 0.00 | 63 | 1019.9 |
| 20260503110501 | 3 | 225 | 1.6 | 6.4 | 0.00 | 0.00 | 0.00 | 75 | 1019.2 |
| 20260503090507 | 2 | 247 | 3.2 | 4.8 | 0.00 | 0.00 | 0.00 | 79 | 1018.8 |
| 20260503081504 | 1 | 270 | 0.0 | 3.2 | 0.00 | 0.00 | 0.00 | 81 | 1018.8 |
| 20260503081007 | 1 | 270 | 0.0 | 3.2 | 0.00 | 0.00 | 0.00 | 81 | 1018.8 |
| 20260503080503 | 1 | 270 | 0.0 | 3.2 | 0.00 | 0.00 | 0.00 | 81 | 1018.8 |
| 20260503072504 | 1 | 315 | 0.0 | 1.6 | 0.00 | 0.00 | 0.00 | 79 | 1018.8 |
| 20260503071501 | 1 | 315 | 0.0 | 0.0 | 0.00 | 0.00 | 0.00 | 79 | 1018.8 |
| 20260503071004 | 1 | 315 | 0.0 | 0.0 | 0.00 | 0.00 | 0.00 | 79 | 1018.8 |
| 20260503070506 | 1 | 315 | 0.0 | 0.0 | 0.00 | 0.00 | 0.00 | 79 | 1018.8 |
| 20260503054506 | 2 | 315 | 0.0 | 0.0 | 0.00 | 0.00 | 0.00 | 76 | 1019.5 |
| 20260503053502 | 2 | 315 | 0.0 | 0.0 | 0.00 | 0.00 | 0.00 | 77 | 1019.2 |
| 20260503053005 | 2 | 315 | 0.0 | 0.0 | 0.00 | 0.00 | 0.00 | 78 | 1019.5 |
| 20260503052508 | 2 | 315 | 0.0 | 0.0 | 0.00 | 0.00 | 0.00 | 78 | 1019.2 |
| 20260503051504 | 2 | 315 | 0.0 | 1.6 | 0.00 | 0.00 | 0.00 | 78 | 1019.5 |
| 20260503051007 | 2 | 315 | 0.0 | 1.6 | 0.00 | 0.00 | 0.00 | 79 | 1019.2 |
| 20260503050507 | 2 | 315 | 0.0 | 0.0 | 0.00 | 0.00 | 0.00 | 79 | 1019.5 |
| 20260503045502 | 2 | 315 | 0.0 | 3.2 | 0.00 | 0.00 | 0.00 | 80 | 1019.5 |
| 20260503045010 | 2 | 315 | 0.0 | 3.2 | 0.00 | 0.00 | 0.00 | 80 | 1019.2 |
| 20260503044506 | 1 | 315 | 1.6 | 3.2 | 0.00 | 0.00 | 0.00 | 80 | 1019.5 |
| 20260503043503 | 1 | 315 | 0.0 | 0.0 | 0.00 | 0.00 | 0.00 | 81 | 1019.2 |
| 20260503043005 | 1 | 315 | 0.0 | 0.0 | 0.00 | 0.00 | 0.00 | 81 | 1019.2 |
| 20260503042003 | 1 | 315 | 0.0 | 0.0 | 0.00 | 0.00 | 0.00 | 81 | 1019.2 |
| 20260503041007 | 1 | 315 | 0.0 | 0.0 | 0.00 | 0.00 | 0.00 | 80 | 1019.2 |
| 20260503040009 | 1 | 315 | 0.0 | 0.0 | 0.00 | 0.00 | 0.00 | 79 | 1019.5 |
| 20260503035502 | 1 | 315 | 0.0 | 0.0 | 0.00 | 0.00 | 0.00 | 78 | 1019.2 |
| 20260503035006 | 1 | 315 | 0.0 | 0.0 | 0.00 | 0.00 | 0.00 | 77 | 1019.5 |
| 20260503034503 | 1 | 315 | 0.0 | 0.0 | 0.00 | 0.00 | 0.00 | 76 | 1019.5 |
| 20260503033507 | 2 | 315 | 0.0 | 0.0 | 0.00 | 0.00 | 0.00 | 73 | 1019.2 |
| 20260503033003 | 2 | 315 | 0.0 | 0.0 | 0.00 | 0.00 | 0.00 | 73 | 1019.2 |
| 20260503032506 | 2 | 315 | 0.0 | 0.0 | 0.00 | 0.00 | 0.00 | 73 | 1019.2 |
| 20260503032003 | 3 | 315 | 0.0 | 0.0 | 0.00 | 0.00 | 0.00 | 72 | 1019.5 |
| 20260503031505 | 3 | 315 | 0.0 | 0.0 | 0.00 | 0.00 | 0.00 | 71 | 1019.5 |
| 20260503031002 | 3 | 315 | 0.0 | 0.0 | 0.00 | 0.00 | 0.00 | 71 | 1019.2 |
| 20260503030505 | 3 | 315 | 0.0 | 0.0 | 0.00 | 0.00 | 0.00 | 70 | 1019.5 |
| 20260503030003 | 3 | 315 | 0.0 | 0.0 | 0.00 | 0.00 | 0.00 | 70 | 1019.5 |
| 20260503025504 | 3 | 315 | 0.0 | 0.0 | 0.00 | 0.00 | 0.00 | 69 | 1019.5 |
| 20260503025001 | 3 | 315 | 0.0 | 0.0 | 0.00 | 0.00 | 0.00 | 69 | 1019.5 |
| 20260503024504 | 3 | 315 | 0.0 | 0.0 | 0.00 | 0.00 | 0.00 | 68 | 1019.2 |
| 20260503023503 | 3 | 315 | 0.0 | 0.0 | 0.00 | 0.00 | 0.00 | 67 | 1019.5 |
| 20260503023006 | 3 | 315 | 0.0 | 0.0 | 0.00 | 0.00 | 0.00 | 67 | 1019.2 |
| 20260503022502 | 3 | 315 | 0.0 | 0.0 | 0.00 | 0.00 | 0.00 | 66 | 1019.2 |
| 20260503022005 | 3 | 315 | 0.0 | 0.0 | 0.00 | 0.00 | 0.00 | 66 | 1019.5 |
| 20260503021502 | 3 | 315 | 0.0 | 0.0 | 0.00 | 0.00 | 0.00 | 65 | 1019.5 |
| 20260503021005 | 3 | 315 | 0.0 | 0.0 | 0.00 | 0.00 | 0.00 | 65 | 1019.5 |
| 20260503020503 | 3 | 315 | 0.0 | 0.0 | 0.00 | 0.00 | 0.00 | 64 | 1019.5 |
| 20260503020005 | 4 | 315 | 0.0 | 0.0 | 0.00 | 0.00 | 0.00 | 63 | 1019.2 |
| 20260503015004 | 4 | 315 | 0.0 | 0.0 | 0.00 | 0.00 | 0.00 | 62 | 1019.2 |
| 20260503014507 | 4 | 315 | 0.0 | 0.0 | 0.00 | 0.00 | 0.00 | 62 | 1019.2 |
| 20260503014004 | 4 | 315 | 0.0 | 0.0 | 0.00 | 0.00 | 0.00 | 62 | 1019.2 |
| 20260503013507 | 4 | 315 | 0.0 | 0.0 | 0.00 | 0.00 | 0.00 | 61 | 1019.2 |
| 20260503013004 | 5 | 315 | 0.0 | 0.0 | 0.00 | 0.00 | 0.00 | 61 | 1019.2 |
| 20260503012507 | 5 | 315 | 0.0 | 0.0 | 0.00 | 0.00 | 0.00 | 60 | 1019.2 |
| 20260503012005 | 5 | 315 | 0.0 | 0.0 | 0.00 | 0.00 | 0.00 | 60 | 1019.2 |
| 20260503011505 | 5 | 315 | 0.0 | 0.0 | 0.00 | 0.00 | 0.00 | 59 | 1019.2 |
| 20260503011002 | 5 | 315 | 0.0 | 0.0 | 0.00 | 0.00 | 0.00 | 58 | 1019.2 |
| 20260503010531 | 6 | 315 | 0.0 | 0.0 | 0.00 | 0.00 | 0.00 | 57 | 1018.8 |
| 20260503010003 | 6 | 315 | 0.0 | 4.8 | 0.00 | 0.00 | 0.00 | 56 | 1019.2 |
| 20260503005506 | 6 | 315 | 0.0 | 4.8 | 0.00 | 0.00 | 0.00 | 55 | 1018.8 |
| 20260503005001 | 6 | 315 | 0.0 | 4.8 | 0.00 | 0.00 | 0.00 | 54 | 1019.2 |
| 20260503004505 | 6 | 315 | 0.0 | 4.8 | 0.00 | 0.00 | 0.00 | 53 | 1018.8 |
| 20260503003502 | 7 | 315 | 0.0 | 4.8 | 0.00 | 0.00 | 0.00 | 51 | 1019.2 |
| 20260503003005 | 7 | 315 | 0.0 | 8.0 | 0.00 | 0.00 | 0.00 | 51 | 1018.8 |
| 20260503002508 | 7 | 315 | 0.0 | 8.0 | 0.00 | 0.00 | 0.00 | 50 | 1018.8 |
| 20260503002004 | 8 | 292 | 3.2 | 8.0 | 0.00 | 0.00 | 0.00 | 50 | 1018.8 |
| 20260503001504 | 8 | 337 | 0.0 | 9.7 | 0.00 | 0.00 | 0.00 | 49 | 1018.8 |
| 20260503001007 | 8 | 360 | 1.6 | 9.7 | 0.00 | 0.00 | 0.00 | 48 | 1018.8 |
| 20260503000004 | 8 | 315 | 3.2 | 12.9 | 0.00 | 0.00 | 0.00 | 46 | 1018.8 |
| 20260502235507 | 8 | 292 | 6.4 | 12.9 | 0.00 | 0.00 | 0.00 | 46 | 1018.8 |
| 20260502235004 | 8 | 337 | 1.6 | 8.0 | 0.00 | 0.00 | 0.00 | 46 | 1018.8 |
| 20260502234507 | 8 | 337 | 4.8 | 14.5 | 0.00 | 0.00 | 0.00 | 47 | 1018.8 |
| 20260502233003 | 8 | 337 | 6.4 | 17.7 | 0.00 | 0.00 | 0.00 | 49 | 1018.8 |
| 20260502232506 | 8 | 337 | 4.8 | 17.7 | 0.00 | 0.00 | 0.00 | 49 | 1018.8 |
| 20260502232003 | 8 | 337 | 6.4 | 17.7 | 0.00 | 0.00 | 0.00 | 49 | 1018.8 |
| 20260502231506 | 8 | 337 | 6.4 | 17.7 | 0.00 | 0.00 | 0.00 | 49 | 1018.8 |
| 20260502231003 | 8 | 360 | 8.0 | 17.7 | 0.00 | 0.00 | 0.00 | 48 | 1018.8 |
| 20260502230506 | 8 | 315 | 6.4 | 17.7 | 0.00 | 0.00 | 0.00 | 47 | 1018.8 |
| 20260502230002 | 8 | 315 | 11.3 | 20.9 | 0.00 | 0.00 | 0.00 | 48 | 1018.5 |
| 20260502225505 | 8 | 337 | 6.4 | 16.1 | 0.00 | 0.00 | 0.00 | 48 | 1018.8 |
| 20260502225002 | 8 | 337 | 8.0 | 16.1 | 0.00 | 0.00 | 0.00 | 50 | 1018.8 |
| 20260502224505 | 8 | 360 | 12.9 | 20.9 | 0.00 | 0.00 | 0.00 | 50 | 1018.5 |
| 20260502224002 | 8 | 22 | 6.4 | 17.7 | 0.00 | 0.00 | 0.00 | 49 | 1018.5 |
| 20260502223505 | 8 | 360 | 9.7 | 17.7 | 0.00 | 0.00 | 0.00 | 49 | 1018.5 |
| 20260502223008 | 8 | 360 | 6.4 | 19.3 | 0.00 | 0.00 | 0.00 | 49 | 1018.5 |
| 20260502221506 | 8 | 337 | 11.3 | 19.3 | 0.00 | 0.00 | 0.00 | 47 | 1018.5 |
| 20260502221003 | 9 | 67 | 4.8 | 16.1 | 0.00 | 0.00 | 0.00 | 47 | 1018.8 |
| 20260502220006 | 9 | 360 | 9.7 | 24.1 | 0.00 | 0.00 | 0.00 | 47 | 1018.5 |
| 20260502215503 | 9 | 337 | 12.9 | 24.1 | 0.00 | 0.00 | 0.00 | 47 | 1018.5 |
| 20260502214005 | 9 | 292 | 14.5 | 29.0 | 0.00 | 0.00 | 0.00 | 47 | 1018.2 |
| 20260502213007 | 9 | 337 | 8.0 | 20.9 | 0.00 | 0.00 | 0.00 | 46 | 1018.2 |
| 20260502212503 | 9 | 315 | 8.0 | 17.7 | 0.00 | 0.00 | 0.00 | 46 | 1018.2 |
| 20260502212005 | 9 | 45 | 4.8 | 17.7 | 0.00 | 0.00 | 0.00 | 45 | 1018.2 |
| 20260502211506 | 10 | 337 | 9.7 | 24.1 | 0.00 | 0.00 | 0.00 | 44 | 1018.2 |
| 20260502211003 | 10 | 315 | 8.0 | 22.5 | 0.00 | 0.00 | 0.00 | 44 | 1018.2 |
| 20260502210505 | 10 | 337 | 9.7 | 19.3 | 0.00 | 0.00 | 0.00 | 44 | 1018.2 |
| 20260502210007 | 9 | 315 | 8.0 | 24.1 | 0.00 | 0.00 | 0.00 | 44 | 1018.2 |
| 20260502205504 | 9 | 45 | 9.7 | 24.1 | 0.00 | 0.00 | 0.00 | 44 | 1018.2 |
| 20260502205005 | 10 | 292 | 14.5 | 24.1 | 0.00 | 0.00 | 0.00 | 44 | 1018.2 |
| 20260502204502 | 10 | 270 | 6.4 | 19.3 | 0.00 | 0.00 | 0.00 | 44 | 1018.2 |
| 20260502204004 | 10 | 315 | 6.4 | 19.3 | 0.00 | 0.00 | 0.00 | 43 | 1018.2 |
| 20260502202003 | 9 | 315 | 8.0 | 16.1 | 0.00 | 0.00 | 0.00 | 44 | 1018.2 |
| 20260502201505 | 9 | 337 | 6.4 | 25.7 | 0.00 | 0.00 | 0.00 | 44 | 1018.2 |
| 20260502201001 | 10 | 22 | 8.0 | 25.7 | 0.00 | 0.00 | 0.00 | 43 | 1018.5 |
| 20260502200504 | 10 | 337 | 12.9 | 17.7 | 0.00 | 0.00 | 0.00 | 43 | 1018.2 |
| 20260502200006 | 10 | 337 | 11.3 | 17.7 | 0.00 | 0.00 | 0.00 | 43 | 1018.5 |
| 20260502195503 | 10 | 22 | 8.0 | 17.7 | 0.00 | 0.00 | 0.00 | 43 | 1018.5 |
| 20260502195005 | 10 | 360 | 9.7 | 17.7 | 0.00 | 0.00 | 0.00 | 43 | 1018.5 |
| 20260502194507 | 9 | 337 | 8.0 | 24.1 | 0.00 | 0.00 | 0.00 | 43 | 1018.5 |
| 20260502194003 | 10 | 247 | 14.5 | 24.1 | 0.00 | 0.00 | 0.00 | 43 | 1018.5 |
| 20260502193505 | 10 | 315 | 11.3 | 17.7 | 0.00 | 0.00 | 0.00 | 43 | 1018.5 |
| 20260502193006 | 10 | 337 | 11.3 | 22.5 | 0.00 | 0.00 | 0.00 | 43 | 1018.5 |
| 20260502192507 | 10 | 292 | 9.7 | 22.5 | 0.00 | 0.00 | 0.00 | 43 | 1018.5 |
| 20260502191503 | 10 | 337 | 12.9 | 19.3 | 0.00 | 0.00 | 0.00 | 42 | 1018.8 |
| 20260502191006 | 10 | 360 | 9.7 | 17.7 | 0.00 | 0.00 | 0.00 | 43 | 1018.8 |
| 20260502190502 | 10 | 337 | 8.0 | 17.7 | 0.00 | 0.00 | 0.00 | 43 | 1018.8 |
| 20260502190004 | 10 | 315 | 9.7 | 29.0 | 0.00 | 0.00 | 0.00 | 43 | 1018.8 |
| 20260502185505 | 10 | 360 | 9.7 | 27.4 | 0.00 | 0.00 | 0.00 | 44 | 1018.8 |
| 20260502185002 | 10 | 315 | 9.7 | 22.5 | 0.00 | 0.00 | 0.00 | 45 | 1018.8 |
| 20260502184503 | 9 | 360 | 9.7 | 22.5 | 0.00 | 0.00 | 0.00 | 44 | 1018.8 |
| 20260502183002 | 10 | 337 | 9.7 | 22.5 | 0.00 | 0.00 | 0.00 | 44 | 1019.2 |
| 20260502182504 | 10 | 315 | 8.0 | 22.5 | 0.00 | 0.00 | 0.00 | 45 | 1018.8 |
| 20260502182006 | 10 | 337 | 14.5 | 20.9 | 0.00 | 0.00 | 0.00 | 45 | 1019.2 |
| 20260502181003 | 9 | 315 | 8.0 | 24.1 | 0.00 | 0.00 | 0.00 | 44 | 1019.2 |
| 20260502180505 | 9 | 337 | 9.7 | 24.1 | 0.00 | 0.00 | 0.00 | 44 | 1019.2 |